This is the latest recevied weather packets stored in our database for station/object N0HOT. If no packets are shown the sender has not sent any weather packets the latest 10 day(s).
| Time | Temp. | Humidity | Pressure | Rain* | Wind** | Luminosity | Snow |
|---|---|---|---|---|---|---|---|
| 1777903009 | 18.33° C | 36% | 997.6 hPa | 0 mm | - | 147 W/m² | - |
| 1777902705 | 17.78° C | 38% | 998 hPa | 0 mm | - | 132 W/m² | - |
| 1777902403 | 17.78° C | 36% | 998 hPa | 0 mm | - | 122 W/m² | - |
| 1777902099 | 17.22° C | 36% | 998 hPa | 0 mm | - | 150 W/m² | - |
| 1777901798 | 16.67° C | 39% | 998.3 hPa | 0 mm | - | 151 W/m² | - |
| 1777901495 | 16.11° C | 39% | 998.3 hPa | 0 mm | - | 167 W/m² | - |
| 1777901192 | 16.11° C | 39% | 998.6 hPa | 0 mm | - | 127 W/m² | - |
| 1777900890 | 15.56° C | 39% | 998.6 hPa | 0 mm | - | 155 W/m² | - |
| 1777900587 | 15° C | 39% | 998.6 hPa | 0 mm | - | 112 W/m² | - |
| 1777900284 | 15° C | 41% | 998.6 hPa | 0 mm | - | 115 W/m² | - |
| 1777899981 | 14.44° C | 41% | 998.6 hPa | 0 mm | - | 95 W/m² | - |
| 1777899678 | 13.89° C | 44% | 999 hPa | 0 mm | - | 116 W/m² | - |
| 1777899375 | 13.89° C | 44% | 999 hPa | 0 mm | - | 100 W/m² | - |
| 1777899073 | 13.33° C | 45% | 999 hPa | 0 mm | - | 78 W/m² | - |
| 1777898769 | 13.33° C | 44% | 999.3 hPa | 0 mm | - | 69 W/m² | - |
| 1777898467 | 12.78° C | 46% | 999.3 hPa | 0 mm | - | 67 W/m² | - |
| 1777898165 | 12.78° C | 46% | 999.3 hPa | 0 mm | - | 63 W/m² | - |
| 1777897861 | 12.22° C | 46% | 999.3 hPa | 0 mm | - | 62 W/m² | - |
| 1777897558 | 11.67° C | 47% | 999.7 hPa | 0 mm | - | 52 W/m² | - |
| 1777897253 | 11.11° C | 48% | 999.7 hPa | 0 mm | - | 45 W/m² | - |
| 1777896949 | 11.11° C | 50% | 999.7 hPa | 0 mm | - | 46 W/m² | - |
| 1777896647 | 10.56° C | 47% | 999.7 hPa | 0 mm | - | 35 W/m² | - |
| 1777896343 | 10° C | 49% | 999.7 hPa | 0 mm | - | 34 W/m² | - |
| 1777896042 | 9.44° C | 52% | 1000 hPa | 0 mm | - | 33 W/m² | - |
| 1777895739 | 8.89° C | 53% | 1000 hPa | 0 mm | - | 30 W/m² | - |
* Rain latest hour (hover to see other rain measurements)
** Current wind speed in m/s (hover to see current wind gust speed)